GW2624 Weather Reports


Display with metric or nautical units.
time (UTC)temp
F
wind
direction
speed
MPH
gust
MPH
rain 1hr
in
rain 24hr
in
rain mn
in
humidity
%
barometer
mb
20260502163903 50 229 1.0 5.0 0.00 0.00 0.00 64 1022.3
20260502163404 49 284 2.0 6.0 0.00 0.00 0.00 65 1022.4
20260502162904 49 256 2.0 6.0 0.00 0.00 0.00 66 1022.4
20260502161403 48 298 2.0 6.0 0.00 0.00 0.00 70 1022.3
20260502160904 47 330 2.0 6.0 0.00 0.00 0.00 71 1022.3
20260502151904 45 275 2.0 3.0 0.00 0.00 0.00 79 1022.4
20260502151403 44 12 1.0 3.0 0.00 0.00 0.00 79 1022.4
20260502130404 34 47 0.0 2.0 0.00 0.00 0.00 87 1022.3
20260502123404 35 46 0.0 0.0 0.00 0.00 0.00 87 1021.7
20260502122905 35 46 0.0 0.0 0.00 0.00 0.00 86 1021.7
20260502121903 36 47 0.0 0.0 0.00 0.00 0.00 86 1021.6
20260502121403 36 46 0.0 0.0 0.00 0.00 0.00 86 1021.7
20260502120904 36 47 0.0 2.0 0.00 0.00 0.00 86 1021.6
20260502120404 37 47 0.0 2.0 0.00 0.00 0.00 86 1021.6
20260502114903 38 47 0.0 0.0 0.00 0.00 0.00 86 1021.7
20260502114403 38 46 0.0 0.0 0.00 0.00 0.00 86 1021.7
20260502113904 38 47 0.0 0.0 0.00 0.00 0.00 86 1021.7
20260502113404 39 47 0.0 0.0 0.00 0.00 0.00 86 1021.8
20260502112904 39 47 0.0 0.0 0.00 0.00 0.00 86 1021.9
20260502112404 39 47 0.0 0.0 0.00 0.00 0.00 86 1021.9
20260502111904 39 47 0.0 2.0 0.00 0.00 0.00 86 1021.8
20260502111403 39 47 0.0 2.0 0.00 0.00 0.00 86 1021.9
20260502110903 39 47 0.0 2.0 0.00 0.00 0.00 86 1021.7
20260502110404 39 47 0.0 2.0 0.00 0.00 0.00 86 1021.7
20260502104904 39 47 1.0 2.0 0.00 0.00 0.00 86 1021.6
20260502103903 39 84 0.0 0.0 0.00 0.00 0.00 86 1021.5
20260502102904 39 84 0.0 1.0 0.00 0.00 0.00 86 1021.2
20260502102404 39 84 0.0 1.0 0.00 0.00 0.00 86 1021.1
20260502090903 40 91 0.0 0.0 0.00 0.00 0.00 86 1020.3
20260502090404 40 91 0.0 0.0 0.00 0.00 0.00 86 1020.3
20260502065903 40 104 0.0 0.0 0.00 0.01 0.00 86 1021.1
20260502064404 40 104 0.0 1.0 0.00 0.01 0.00 86 1020.8
20260502063403 40 104 0.0 0.0 0.00 0.01 0.00 86 1020.8
20260502055904 40 104 0.0 1.0 0.00 0.01 0.01 86 1020.4
20260502055404 40 104 0.0 2.0 0.00 0.01 0.01 86 1020.3
20260502053904 40 104 0.0 1.0 0.00 0.01 0.01 86 1020.1
20260502053404 40 104 0.0 0.0 0.00 0.01 0.01 86 1020.0
20260502052903 40 104 0.0 0.0 0.00 0.01 0.01 86 1019.9
20260502051403 40 104 0.0 1.0 0.00 0.01 0.01 86 1019.6
20260502050903 40 104 0.0 1.0 0.00 0.01 0.01 86 1019.5
20260502045903 40 91 0.0 1.0 0.00 0.01 0.01 86 1019.3
20260502044904 40 75 0.0 1.0 0.00 0.01 0.01 86 1019.2
20260502044403 41 75 0.0 2.0 0.00 0.01 0.01 86 1019.1
20260502043905 41 75 0.0 2.0 0.00 0.01 0.01 86 1019.0
20260502042904 41 78 0.0 2.0 0.00 0.01 0.01 86 1019.0
20260502042403 41 78 0.0 2.0 0.00 0.01 0.01 86 1019.0
20260502041903 41 43 0.0 1.0 0.00 0.01 0.01 86 1018.9
20260502035404 41 43 0.0 2.0 0.00 0.01 0.01 85 1019.1
20260502034904 42 43 0.0 2.0 0.00 0.01 0.01 86 1019.1
20260502034403 42 38 0.0 2.0 0.00 0.01 0.01 85 1019.1
20260502033904 42 38 0.0 2.0 0.00 0.01 0.01 85 1019.0
20260502033403 42 70 1.0 3.0 0.00 0.01 0.01 85 1018.9
20260502032403 42 62 0.0 3.0 0.00 0.01 0.01 85 1018.6
20260502031904 42 65 0.0 3.0 0.00 0.01 0.01 85 1018.5
20260502030404 42 201 0.0 0.0 0.00 0.01 0.01 85 1018.0
20260502025405 41 201 0.0 2.0 0.00 0.01 0.01 85 1017.7
20260502024905 42 201 1.0 2.0 0.00 0.01 0.01 85 1017.4
20260502023904 41 201 0.0 0.0 0.00 0.01 0.01 85 1017.1
20260502021404 42 201 0.0 0.0 0.00 0.01 0.01 84 1016.8
20260502020904 42 201 0.0 0.0 0.00 0.01 0.01 84 1016.9
20260502020405 42 201 0.0 0.0 0.00 0.01 0.01 84 1016.9
20260502015404 42 201 0.0 0.0 0.00 0.01 0.01 84 1016.4
20260502014904 42 201 0.0 3.0 0.00 0.01 0.01 84 1016.4
20260502014404 42 201 0.0 3.0 0.00 0.01 0.01 83 1016.3
20260502013905 42 192 1.0 3.0 0.00 0.01 0.01 83 1016.3
20260502013404 43 180 0.0 2.0 0.00 0.01 0.01 83 1016.2
20260502012904 43 175 0.0 1.0 0.00 0.01 0.01 83 1016.1
20260502011905 43 175 1.0 3.0 0.00 0.01 0.01 83 1016.0
20260502010405 44 273 0.0 1.0 0.00 0.01 0.01 84 1015.8
20260502005405 44 261 0.0 3.0 0.00 0.01 0.01 83 1015.6
20260502004404 45 0 0.0 3.0 0.00 0.01 0.01 83 1015.2
20260502003904 45 0 2.0 3.0 0.00 0.01 0.01 83 1015.0
20260502003404 45 0 2.0 3.0 0.00 0.01 0.01 84 1015.0
20260502002905 44 0 2.0 6.0 0.00 0.01 0.01 84 1014.8
20260502002404 44 0 1.0 10.0 0.00 0.01 0.01 84 1014.5
20260502001904 44 0 6.0 10.0 0.00 0.01 0.01 84 1014.4
20260502001404 43 0 4.0 8.0 0.00 0.01 0.01 85 1014.5
20260502000904 43 142 4.0 8.0 0.00 0.01 0.01 85 1014.4
20260501235404 43 151 2.0 10.0 0.00 0.01 0.01 85 1014.4
20260501234404 42 136 4.0 10.0 0.00 0.01 0.01 84 1014.2
20260501233904 42 183 1.0 3.0 0.00 0.01 0.01 84 1014.9
20260501232904 43 192 1.0 5.0 0.00 0.01 0.01 84 1015.2
20260501232404 43 176 1.0 2.0 0.00 0.01 0.01 84 1015.1
20260501231904 43 176 0.0 2.0 0.00 0.01 0.01 84 1014.8
20260501225906 43 65 2.0 5.0 0.00 0.01 0.01 84 1014.0
20260501225404 43 140 3.0 6.0 0.00 0.01 0.01 84 1013.9
20260501222405 43 149 2.0 6.0 0.00 0.01 0.01 83 1013.2
20260501221904 43 130 2.0 5.0 0.00 0.01 0.01 82 1013.1
20260501215404 46 47 2.0 9.0 0.00 0.01 0.01 74 1012.8
20260501214904 48 22 2.0 10.0 0.00 0.01 0.01 71 1012.6
20260501214404 49 26 3.0 10.0 0.00 0.01 0.01 67 1012.6
20260501213904 50 0 3.0 10.0 0.00 0.01 0.01 64 1012.6
20260501212904 52 0 3.0 8.0 0.00 0.01 0.01 62 1012.4
20260501212404 52 0 3.0 12.0 0.00 0.01 0.01 60 1012.3
20260501211405 52 0 4.0 12.0 0.00 0.01 0.01 55 1011.9
20260501210904 53 0 4.0 12.0 0.00 0.01 0.01 55 1011.8
20260501204905 53 0 3.0 12.0 0.00 0.01 0.01 56 1011.6
20260501202905 54 159 4.0 13.0 0.00 0.01 0.01 54 1011.5
20260501202404 54 190 3.0 13.0 0.00 0.01 0.01 55 1011.6
20260501201904 54 168 4.0 12.0 0.00 0.01 0.01 56 1011.6
20260501201404 54 183 6.0 16.0 0.00 0.01 0.01 55 1011.7
20260501200904 54 215 4.0 16.0 0.00 0.01 0.01 54 1011.7
20260501195904 54 196 3.0 9.0 0.00 0.01 0.01 54 1011.7
20260501195404 54 255 3.0 9.0 0.00 0.01 0.01 56 1011.8
20260501194904 54 261 4.0 9.0 0.00 0.01 0.01 59 1011.8
20260501191904 53 205 3.0 6.0 0.00 0.01 0.01 61 1012.0
20260501191404 53 168 3.0 9.0 0.00 0.01 0.01 58 1012.0
20260501190904 53 147 3.0 9.0 0.00 0.01 0.01 58 1012.2
20260501190404 52 182 3.0 7.0 0.00 0.01 0.01 66 1012.2
20260501185404 51 168 5.0 12.0 0.00 0.01 0.01 65 1012.3
20260501184904 52 134 6.0 12.0 0.00 0.01 0.01 65 1012.3
20260501183904 50 188 2.0 9.0 0.00 0.01 0.01 71 1012.4
20260501183404 50 248 4.0 8.0 0.00 0.01 0.01 72 1012.4
20260501182904 49 0 2.0 6.0 0.00 0.01 0.01 73 1012.4
20260501181904 49 0 1.0 12.0 0.00 0.01 0.01 75 1012.4
20260501180904 49 146 5.0 12.0 0.00 0.01 0.01 75 1012.5
20260501175404 47 0 2.0 10.0 0.00 0.01 0.01 77 1012.8
20260501174904 47 0 5.0 10.0 0.00 0.01 0.01 76 1012.9
20260501173404 47 0 4.0 9.0 0.00 0.01 0.01 77 1012.9
20260501171404 47 252 2.0 5.0 0.00 0.01 0.01 75 1012.8